Погода в Учаджи

Погода в Учаджи : погода сейчас, прогноз погоды и архив. Всё, что Вы хотите узнать о погоде в Учаджи!

Хотите узнать прогноз погоды в Учаджи? Тогда Вам сюда: Погода в Учаджи

Поиск расширенной информации на нашем сайте:

Другие новости

Новости СМИ2

Главная страница сайта

Новости сайта

03.07.2017

Напоминаем, что на нашем специализированном сайте Метеоцентр.Азия вы можете получить высокодетализированные автоматические прогнозы погоды по пунктам России, СНГ и мира в авиационном формате (включающие направление и скорость ветра, видимость, явления погоды, количество и форму облачности, нижнюю и верхнюю границу облачности).

Рекомендуем: Анорексия фото мужчины в мире набирает популярность мужская анорексия.

Погода в Учаджи - сегодня

Время (UTC), дата Ветер
(°,м/с) 
Видим.   Явления Облачность Т
(°С)
Тd
(°С)
f(%) Тe
(°С)
Pmin
(гПа)
dP
(гПа)
Po
(мм)
O2
(г/м3)
Тmin Tmax R s Состояние
почвы
21 21.11.17 140 (ЮВ) 10 км    ясно 
+8.9 -0.9 50 +7  1014.2  -2.1  743  290           
00 22.11.17 160 (Ю) 10 км    ясно 
+6.6 -1.1 58 +5  1013  -1.3  742  292           
03 22.11.17 160 (Ю) 10 км    3/3 600 м 
[Sc diur, vesp]
+8.7 +1.5 61 +7  1013.1  0.3  743  290           
06 22.11.17 180 (Ю) 10 км    6/0 верхняя 
[Ci fib]
+18.8 -3.6 22 +19  1012  -0.3  742  280  +6         
09 22.11.17 160 (Ю) 10 км    9/8 600 м верхняя 
[Sc|Ci ing]
+23 -2.7 18 +23  1009.7  -2  741  276           
12 22.11.17 160 (Ю) 10 км    9/9 600 м 
[Sc]
+23.2 -4.1 16 +23  1008.7  -1  740  275           
15 22.11.17 160 (Ю) 10 км    8/8 600 м 
[Sc]
+18.6 -5 20 +19  1009.2  0.2  740  280    +24.6       
18 22.11.17 180 (Ю) 10 км    4/4 600 м 
[Sc]
+16.8 +0.2 32 +17  1009.4  740  281    +24.6       
21 22.11.17 180 (Ю) 10 км    ясно 
+15.2 +0.9 38 +16  1009.5  740  282           
00 23.11.17 140 (ЮВ) 10 км    ясно 
+15 +1.5 40 +16  1009.1  -0.4  740  282           
03 23.11.17 200 (Ю) 10 км    3/0 верхняя 
[Ci fib]
+12 +0.4 45 +12  1009.2  -0.1  740  285           
06 23.11.17 250 (З) 10 км    ясно 
+19 -1.7 25 +19  1010.3  1.6  741  279  +11.8         
09 23.11.17 250 (З) 10 км    ясно 
+23.6 +1.9 24 +24  1009  -1  740  274           
12 23.11.17 270 (З) 10 км    8/0 верхняя 
[Ci sp]
+24.4 +2.7 24 +24  1008.5  -0.4  740  273           
15 23.11.17 тихо ()   10 км    6/0 верхняя 
[Ci fib]
+13 +1.7 46 +13  1009.3  740  284    +25.2       
18 23.11.17 110 (В) 10 км    4/0 верхняя 
[Ci fib]
+12.6 -1.4 38 +14  1010.2  0.8  741  285    +25.2       
21 23.11.17 340 (С) 10 км    10/10 600 м 
[Sc]
+13.4 +3.6 51 +13  1012.4  2.3  742  285           
00 24.11.17 050 (СВ) 10 км  слаб. дождь  10/10 600 м 
[Frnb|Ns]
+10.7 +9.3 91 +11  1013.4  0.7  743  286           
03 24.11.17 360 (С) 10 км    10/10 600 м 
[Sc]
+10.2 +8.4 89 +10  1015.4  1.9  744  288         
06 24.11.17 290 (З) 10 км    9/9 600 м 
[Sc]
+11 +8.5 85 +11  1018  2.7  746  288  +10       
09 24.11.17 320 (СЗ) 10 км    9/9 600 м 
[Sc]
+13 +4.3 55 +13  1017.8  746  286           
12 24.11.17 070 (В) 10 км    10/10 600 м 
[Sc]
+13.4 +4 53 +15  1016.8  -1  746  286           
15 24.11.17 070 (В) 10 км    5/5 600 м 
[Sc]
+11.4 +8.1 80 +13  1016.5  -0.4  745  287    +13.8       
18 24.11.17 070 (В) 10 км    4/4 600 м 
[Sc]
+9.4 +8.6 95 +9  1016.6  -0.1  745  289    +13.8       
21 24.11.17 050 (СВ) 10 км    8/8 600 м 
[Sc]
+8 +7 93 +8  1015.1  -1.7  744  290           
Время (UTC), дата Ветер
(°,м/с) 
Видим.   Явления Облачность Т
(°С)
Тd
(°С)
f(%) Тe
(°С)
Pmin
(гПа)
dP
(гПа)
Po
(мм)
O2
(г/м3)
Тmin Tmax R s Состояние
почвы

Для получения пояснительной информации подведите курсор к названию столбца.

ПОГОДА в Учаджи - архив

Всё, что Вы хотите узнать о погоде в Учаджи - удобно и подробно!

Выберите нужную дату (начиная с 1 января 2015* года) и нажмите кнопку "Найти".
Будут отображены архивные сводки погоды по пункту Учаджи, начиная с указанной даты.


Отображать данные в формате CSV (для использования в таблицах Excel)


Внимание! Наш архив погоды предназначен исключительно для личного некоммерческого использования в познавательных целях. Если Вам необходимы официальные справки о состоянии погоды (для производственных, юридических, коммерческих и т.п. целей), обращайтесь в органы Росгидромета.

*Примечание: данная дата относится к архиву по метеостанциям СССР (Россия, СНГ, Балтия).
Архив по метеостанциям Зарубежной Европы и Азии (кроме Китая) хранится 10 дней, по другим регионам земного шара (Китай, Африка, Америка, Австралия, Океания) - 1 день.

Учаджи - район местоположения метеостанции


Название, широта, долгота, высота метеостанции:
Учаджи 38.1°ш. 62.8°д. 185 м над ур. моря [Туркменистан]

Дополнительная информация

В oтличие oт бoльшинства пoгoдных сайтoв мы публикуем пoдрoбную метеoинфoрмацию в детальнoм прoфессиoнальнoм фoрмате.

Характеристики температуры и влажнoсти вoздуха измеряются на высoте 2 м в тени вдали oт зданий и деревьев.
Скoрoсть ветра измеряется на высoте 10 м (на урoвне рoста челoвека скoрoсть ветра ниже в 1.5-2 раза). Если метеoстанция нахoдится в гoрoде или в лесу, тo скoрoсть ветра занижена на 2-4 м/с пo сравнению с oткрытым местoм. Скoрoсть ветра над акватoриями крупных рек и oзёр, а также на вершинах хoлмoв на 2-5 м/с выше, чем в oбычных услoвиях.
Атмoсфернoе давление в разных тoчках местнoсти мoжет значительнo oтличаться oт давления на метеoстанции, в зависимoсти oт услoвий рельефа (при пoдъёме на 10 м давление пoнижается примернo на 1 мм рт.ст.).